owner,sensor,date,latitude,longitude,vertical_datum,wind_speed,wind_to_direction,wind_speed_of_gust,qcFlag 
TCOON,ioos:station:TCOON:146:1,2014-12-01T02:30:00Z,28.1324,-97.0345,0.0,5.1,132.0,5.9,'1111122,1111122,1111122' 
TCOON,ioos:station:TCOON:146:1,2014-12-01T03:30:00Z,28.1324,-97.0345,0.0,3.8,139.0,4.5,'1111122,1111122,1111122' 
TCOON,ioos:station:TCOON:146:1,2014-12-01T04:30:00Z,28.1324,-97.0345,0.0,1.4,141.0,2.0,'1111122,1111122,1111122' 
TCOON,ioos:station:TCOON:146:1,2014-12-01T05:30:00Z,28.1324,-97.0345,0.0,2.3,138.0,3.0,'1111122,1111122,1111122' 
TCOON,ioos:station:TCOON:146:1,2014-12-01T06:30:00Z,28.1324,-97.0345,0.0,0.7,168.0,1.1,'1111122,1111122,1111122' 
TCOON,ioos:station:TCOON:146:1,2014-12-01T07:30:00Z,28.1324,-97.0345,0.0,1.6,121.0,2.0,'1111122,1111122,1111122' 
TCOON,ioos:station:TCOON:146:1,2014-12-01T08:30:00Z,28.1324,-97.0345,0.0,0.8,48.0,1.4,'1111122,1111122,1111122' 
TCOON,ioos:station:TCOON:146:1,2014-12-01T09:30:00Z,28.1324,-97.0345,0.0,0.9,91.0,1.5,'1111122,1111122,1111122' 
TCOON,ioos:station:TCOON:146:1,2014-12-01T10:30:00Z,28.1324,-97.0345,0.0,1.6,353.0,1.7,'1111122,1111122,1111122' 
TCOON,ioos:station:TCOON:146:1,2014-12-01T11:30:00Z,28.1324,-97.0345,0.0,2.3,43.0,2.7,'1111122,1111122,1111122' 
TCOON,ioos:station:TCOON:146:1,2014-12-01T12:30:00Z,28.1324,-97.0345,0.0,3.3,37.0,4.6,'1111122,1111122,1111122' 
TCOON,ioos:station:TCOON:146:1,2014-12-01T13:30:00Z,28.1324,-97.0345,0.0,3.1,20.0,3.7,'1111122,1111122,1111122' 
TCOON,ioos:station:TCOON:146:1,2014-12-01T19:00:00Z,28.1324,-97.0345,0.0,3.4,66.0,4.0,'1111122,1111122,1111122' 
TCOON,ioos:station:TCOON:146:1,2014-12-01T19:30:00Z,28.1324,-97.0345,0.0,3.6,45.0,4.4,'1111122,1111122,1111122' 
TCOON,ioos:station:TCOON:146:1,2014-12-01T20:30:00Z,28.1324,-97.0345,0.0,6.8,50.0,8.6,'1111122,1111122,1111122' 
TCOON,ioos:station:TCOON:146:1,2014-12-01T21:30:00Z,28.1324,-97.0345,0.0,11.3,4.0,12.8,'1111122,1111122,1111122' 
TCOON,ioos:station:TCOON:146:1,2014-12-01T22:30:00Z,28.1324,-97.0345,0.0,11.5,8.0,13.6,'1111122,1111122,1111122' 
TCOON,ioos:station:TCOON:146:1,2014-12-02T00:30:00Z,28.1324,-97.0345,0.0,10.9,1.0,13.1,'1111122,1111122,1111122' 
TCOON,ioos:station:TCOON:146:1,2014-12-02T01:30:00Z,28.1324,-97.0345,0.0,11.3,2.0,13.9,'1111122,1111122,1111122' 
TCOON,ioos:station:TCOON:146:1,2014-12-02T02:30:00Z,28.1324,-97.0345,0.0,9.7,8.0,12.3,'1111122,1111122,1111122' 
TCOON,ioos:station:TCOON:146:1,2014-12-02T03:30:00Z,28.1324,-97.0345,0.0,9.8,14.0,12.1,'1111122,1111122,1111122' 
TCOON,ioos:station:TCOON:146:1,2014-12-02T04:30:00Z,28.1324,-97.0345,0.0,10.0,3.0,12.1,'1111122,1111122,1111122' 
TCOON,ioos:station:TCOON:146:1,2014-12-02T05:30:00Z,28.1324,-97.0345,0.0,9.3,359.0,11.5,'1111122,1111122,1111122' 
TCOON,ioos:station:TCOON:146:1,2014-12-02T07:00:00Z,28.1324,-97.0345,0.0,8.2,5.0,11.3,'1111122,1111122,1111122' 
TCOON,ioos:station:TCOON:146:1,2014-12-02T07:30:00Z,28.1324,-97.0345,0.0,7.9,355.0,10.2,'1111122,1111122,1111122' 
TCOON,ioos:station:TCOON:146:1,2014-12-02T08:30:00Z,28.1324,-97.0345,0.0,8.2,2.0,10.4,'1111122,1111122,1111122' 
TCOON,ioos:station:TCOON:146:1,2014-12-02T09:30:00Z,28.1324,-97.0345,0.0,8.4,6.0,10.3,'1111122,1111122,1111122' 
TCOON,ioos:station:TCOON:146:1,2014-12-02T10:30:00Z,28.1324,-97.0345,0.0,8.5,4.0,11.0,'1111122,1111122,1111122' 
TCOON,ioos:station:TCOON:146:1,2014-12-02T11:30:00Z,28.1324,-97.0345,0.0,8.8,7.0,10.4,'1111122,1111122,1111122' 
TCOON,ioos:station:TCOON:146:1,2014-12-02T12:30:00Z,28.1324,-97.0345,0.0,6.4,1.0,8.0,'1111122,1111122,1111122' 
TCOON,ioos:station:TCOON:146:1,2014-12-02T14:30:00Z,28.1324,-97.0345,0.0,4.3,13.0,6.2,'1111122,1111122,1111122' 
TCOON,ioos:station:TCOON:146:1,2014-12-02T15:30:00Z,28.1324,-97.0345,0.0,5.0,18.0,6.1,'1111122,1111122,1111122' 
TCOON,ioos:station:TCOON:146:1,2014-12-02T16:30:00Z,28.1324,-97.0345,0.0,5.5,7.0,7.4,'1111122,1111122,1111122' 
TCOON,ioos:station:TCOON:146:1,2014-12-02T17:30:00Z,28.1324,-97.0345,0.0,3.4,18.0,5.0,'1111122,1111122,1111122' 
TCOON,ioos:station:TCOON:146:1,2014-12-02T18:30:00Z,28.1324,-97.0345,0.0,1.7,15.0,2.8,'1111122,1111122,1111122' 
TCOON,ioos:station:TCOON:146:1,2014-12-02T19:30:00Z,28.1324,-97.0345,0.0,3.3,37.0,5.3,'1111122,1111122,1111122' 
TCOON,ioos:station:TCOON:146:1,2014-12-02T20:30:00Z,28.1324,-97.0345,0.0,2.8,53.0,3.8,'1111122,1111122,1111122' 
TCOON,ioos:station:TCOON:146:1,2014-12-02T21:30:00Z,28.1324,-97.0345,0.0,3.3,37.0,4.4,'1111122,1111122,1111122' 
TCOON,ioos:station:TCOON:146:1,2014-12-02T22:30:00Z,28.1324,-97.0345,0.0,3.2,12.0,4.3,'1111122,1111122,1111122' 
TCOON,ioos:station:TCOON:146:1,2014-12-02T23:30:00Z,28.1324,-97.0345,0.0,3.0,37.0,4.4,'1111122,1111122,1111122' 
TCOON,ioos:station:TCOON:146:1,2014-12-03T00:30:00Z,28.1324,-97.0345,0.0,3.5,72.0,4.6,'1111122,1111122,1111122' 
TCOON,ioos:station:TCOON:146:1,2014-12-03T01:30:00Z,28.1324,-97.0345,0.0,6.3,31.0,7.3,'1111122,1111122,1111122' 
TCOON,ioos:station:TCOON:146:1,2014-12-03T02:30:00Z,28.1324,-97.0345,0.0,4.3,42.0,6.0,'1111122,1111122,1111122' 
TCOON,ioos:station:TCOON:146:1,2014-12-03T03:30:00Z,28.1324,-97.0345,0.0,5.7,42.0,6.8,'1111122,1111122,1111122' 
TCOON,ioos:station:TCOON:146:1,2014-12-03T04:30:00Z,28.1324,-97.0345,0.0,3.4,35.0,4.1,'1111122,1111122,1111122' 
TCOON,ioos:station:TCOON:146:1,2014-12-03T05:30:00Z,28.1324,-97.0345,0.0,3.0,11.0,4.0,'1111122,1111122,1111122' 
TCOON,ioos:station:TCOON:146:1,2014-12-03T06:30:00Z,28.1324,-97.0345,0.0,4.3,0.0,4.9,'1111122,1114422,1111122' 
TCOON,ioos:station:TCOON:146:1,2014-12-03T07:30:00Z,28.1324,-97.0345,0.0,4.4,11.0,5.3,'1111122,1111122,1111122' 
TCOON,ioos:station:TCOON:146:1,2014-12-03T08:30:00Z,28.1324,-97.0345,0.0,5.2,16.0,6.1,'1111122,1111122,1111122' 
TCOON,ioos:station:TCOON:146:1,2014-12-03T09:30:00Z,28.1324,-97.0345,0.0,6.2,17.0,7.4,'1111122,1111122,1111122' 
TCOON,ioos:station:TCOON:146:1,2014-12-03T10:30:00Z,28.1324,-97.0345,0.0,6.6,15.0,7.6,'1111122,1111122,1111122' 
TCOON,ioos:station:TCOON:146:1,2014-12-03T11:30:00Z,28.1324,-97.0345,0.0,4.1,19.0,5.3,'1111122,1111122,1111122' 
TCOON,ioos:station:TCOON:146:1,2014-12-03T12:30:00Z,28.1324,-97.0345,0.0,4.0,47.0,4.7,'1111122,1111122,1111122' 
TCOON,ioos:station:TCOON:146:1,2014-12-03T13:30:00Z,28.1324,-97.0345,0.0,3.3,46.0,4.2,'1111122,1111122,1111122' 
TCOON,ioos:station:TCOON:146:1,2014-12-03T14:30:00Z,28.1324,-97.0345,0.0,5.1,68.0,6.4,'1111122,1111122,1111122' 
TCOON,ioos:station:TCOON:146:1,2014-12-03T15:30:00Z,28.1324,-97.0345,0.0,7.2,60.0,8.8,'1111122,1111122,1111122' 
TCOON,ioos:station:TCOON:146:1,2014-12-03T16:30:00Z,28.1324,-97.0345,0.0,5.8,72.0,7.4,'1111122,1111122,1111122' 
TCOON,ioos:station:TCOON:146:1,2014-12-03T17:30:00Z,28.1324,-97.0345,0.0,5.5,75.0,6.9,'1111122,1111122,1111122' 
TCOON,ioos:station:TCOON:146:1,2014-12-03T18:30:00Z,28.1324,-97.0345,0.0,7.8,88.0,9.3,'1111122,1111122,1111122' 
TCOON,ioos:station:TCOON:146:1,2014-12-03T19:30:00Z,28.1324,-97.0345,0.0,7.1,89.0,9.1,'1111122,1111122,1111122' 
TCOON,ioos:station:TCOON:146:1,2014-12-03T20:30:00Z,28.1324,-97.0345,0.0,7.0,84.0,8.8,'1111122,1111122,1111122' 
TCOON,ioos:station:TCOON:146:1,2014-12-03T21:30:00Z,28.1324,-97.0345,0.0,7.8,80.0,9.4,'1111122,1111122,1111122' 
TCOON,ioos:station:TCOON:146:1,2014-12-03T22:30:00Z,28.1324,-97.0345,0.0,5.6,66.0,7.0,'1111122,1111122,1111122' 
TCOON,ioos:station:TCOON:146:1,2014-12-03T23:30:00Z,28.1324,-97.0345,0.0,5.5,74.0,7.4,'1111122,1111122,1111122' 
TCOON,ioos:station:TCOON:146:1,2014-12-04T00:30:00Z,28.1324,-97.0345,0.0,6.1,80.0,7.3,'1111122,1111122,1111122' 
TCOON,ioos:station:TCOON:146:1,2014-12-04T01:30:00Z,28.1324,-97.0345,0.0,6.9,75.0,7.9,'1111122,1111122,1111122' 
TCOON,ioos:station:TCOON:146:1,2014-12-04T02:30:00Z,28.1324,-97.0345,0.0,7.1,74.0,8.9,'1111122,1111122,1111122' 
TCOON,ioos:station:TCOON:146:1,2014-12-04T03:30:00Z,28.1324,-97.0345,0.0,5.9,68.0,7.4,'1111122,1111122,1111122' 
TCOON,ioos:station:TCOON:146:1,2014-12-04T04:30:00Z,28.1324,-97.0345,0.0,4.6,50.0,5.6,'1111122,1111122,1111122' 
TCOON,ioos:station:TCOON:146:1,2014-12-04T05:30:00Z,28.1324,-97.0345,0.0,5.0,50.0,6.2,'1111122,1111122,1111122' 
TCOON,ioos:station:TCOON:146:1,2014-12-04T06:30:00Z,28.1324,-97.0345,0.0,5.8,54.0,6.9,'1111122,1111122,1111122' 
TCOON,ioos:station:TCOON:146:1,2014-12-04T07:30:00Z,28.1324,-97.0345,0.0,5.6,47.0,7.1,'1111122,1111122,1111122' 
TCOON,ioos:station:TCOON:146:1,2014-12-04T08:30:00Z,28.1324,-97.0345,0.0,4.7,44.0,6.1,'1111122,1111122,1111122' 
TCOON,ioos:station:TCOON:146:1,2014-12-04T09:30:00Z,28.1324,-97.0345,0.0,3.6,41.0,4.4,'1111122,1111122,1111122' 
TCOON,ioos:station:TCOON:146:1,2014-12-04T10:30:00Z,28.1324,-97.0345,0.0,5.0,49.0,5.9,'1111122,1111122,1111122' 
TCOON,ioos:station:TCOON:146:1,2014-12-04T11:30:00Z,28.1324,-97.0345,0.0,4.2,64.0,4.8,'1111122,1111122,1111122' 
TCOON,ioos:station:TCOON:146:1,2014-12-04T12:30:00Z,28.1324,-97.0345,0.0,4.0,65.0,4.9,'1111122,1111122,1111122' 
TCOON,ioos:station:TCOON:146:1,2014-12-04T13:30:00Z,28.1324,-97.0345,0.0,5.5,62.0,6.5,'1111122,1111122,1111122' 
TCOON,ioos:station:TCOON:146:1,2014-12-04T14:30:00Z,28.1324,-97.0345,0.0,5.7,73.0,7.1,'1111122,1111122,1111122' 
TCOON,ioos:station:TCOON:146:1,2014-12-04T15:30:00Z,28.1324,-97.0345,0.0,5.5,74.0,6.4,'1111122,1111122,1111122' 
TCOON,ioos:station:TCOON:146:1,2014-12-04T16:30:00Z,28.1324,-97.0345,0.0,5.6,87.0,7.1,'1111122,1111122,1111122' 
TCOON,ioos:station:TCOON:146:1,2014-12-04T17:30:00Z,28.1324,-97.0345,0.0,6.1,91.0,7.1,'1111122,1111122,1111122' 
TCOON,ioos:station:TCOON:146:1,2014-12-04T18:30:00Z,28.1324,-97.0345,0.0,4.9,88.0,5.6,'1111122,1111122,1111122' 
TCOON,ioos:station:TCOON:146:1,2014-12-04T19:30:00Z,28.1324,-97.0345,0.0,3.2,88.0,4.0,'1111122,1111122,1111122' 
TCOON,ioos:station:TCOON:146:1,2014-12-04T20:30:00Z,28.1324,-97.0345,0.0,5.5,75.0,6.5,'1111122,1111122,1111122' 
TCOON,ioos:station:TCOON:146:1,2014-12-04T21:30:00Z,28.1324,-97.0345,0.0,5.4,65.0,6.9,'1111122,1111122,1111122' 
TCOON,ioos:station:TCOON:146:1,2014-12-04T22:30:00Z,28.1324,-97.0345,0.0,4.5,69.0,5.1,'1111122,1111122,1111122' 
TCOON,ioos:station:TCOON:146:1,2014-12-04T23:30:00Z,28.1324,-97.0345,0.0,6.1,76.0,7.4,'1111122,1111122,1111122' 
TCOON,ioos:station:TCOON:146:1,2014-12-05T00:30:00Z,28.1324,-97.0345,0.0,5.8,80.0,6.8,'1111122,1111122,1111122' 
TCOON,ioos:station:TCOON:146:1,2014-12-05T01:30:00Z,28.1324,-97.0345,0.0,6.5,86.0,8.3,'1111122,1111122,1111122' 
TCOON,ioos:station:TCOON:146:1,2014-12-05T02:30:00Z,28.1324,-97.0345,0.0,6.0,89.0,6.7,'1111122,1111122,1111122' 
TCOON,ioos:station:TCOON:146:1,2014-12-05T03:30:00Z,28.1324,-97.0345,0.0,4.5,86.0,5.1,'1111122,1111122,1111122' 
TCOON,ioos:station:TCOON:146:1,2014-12-05T04:30:00Z,28.1324,-97.0345,0.0,3.2,105.0,3.7,'1111122,1111122,1111122' 
TCOON,ioos:station:TCOON:146:1,2014-12-05T05:30:00Z,28.1324,-97.0345,0.0,2.7,120.0,3.0,'1111122,1111122,1111122' 
TCOON,ioos:station:TCOON:146:1,2014-12-05T07:00:00Z,28.1324,-97.0345,0.0,3.1,139.0,3.5,'1111122,1111122,1111122' 
TCOON,ioos:station:TCOON:146:1,2014-12-05T07:30:00Z,28.1324,-97.0345,0.0,2.5,141.0,2.9,'1111122,1111122,1111122' 
TCOON,ioos:station:TCOON:146:1,2014-12-05T08:30:00Z,28.1324,-97.0345,0.0,2.6,140.0,2.8,'1111122,1111122,1111122' 
TCOON,ioos:station:TCOON:146:1,2014-12-05T09:30:00Z,28.1324,-97.0345,0.0,1.7,121.0,2.5,'1111122,1111122,1111122' 
TCOON,ioos:station:TCOON:146:1,2014-12-05T10:30:00Z,28.1324,-97.0345,0.0,1.6,117.0,2.1,'1111122,1111122,1111122' 
TCOON,ioos:station:TCOON:146:1,2014-12-05T11:30:00Z,28.1324,-97.0345,0.0,1.6,121.0,2.2,'1111122,1111122,1111122' 
TCOON,ioos:station:TCOON:146:1,2014-12-05T12:30:00Z,28.1324,-97.0345,0.0,1.7,110.0,2.2,'1111122,1111122,1111122' 
TCOON,ioos:station:TCOON:146:1,2014-12-05T13:30:00Z,28.1324,-97.0345,0.0,1.4,105.0,1.7,'1111122,1111122,1111122' 
TCOON,ioos:station:TCOON:146:1,2014-12-05T14:30:00Z,28.1324,-97.0345,0.0,0.4,41.0,0.7,'1111122,1111122,1111122' 
TCOON,ioos:station:TCOON:146:1,2014-12-05T15:30:00Z,28.1324,-97.0345,0.0,2.1,116.0,2.5,'1111122,1111122,1111122' 
TCOON,ioos:station:TCOON:146:1,2014-12-05T17:30:00Z,28.1324,-97.0345,0.0,4.6,153.0,5.7,'1111122,1111122,1111122' 
TCOON,ioos:station:TCOON:146:1,2014-12-05T18:30:00Z,28.1324,-97.0345,0.0,5.2,157.0,6.9,'1111122,1111122,1111122' 
TCOON,ioos:station:TCOON:146:1,2014-12-05T19:30:00Z,28.1324,-97.0345,0.0,5.5,154.0,7.5,'1111122,1111122,1111122' 
TCOON,ioos:station:TCOON:146:1,2014-12-05T20:30:00Z,28.1324,-97.0345,0.0,4.9,145.0,6.2,'1111122,1111122,1111122' 
TCOON,ioos:station:TCOON:146:1,2014-12-05T21:30:00Z,28.1324,-97.0345,0.0,5.2,150.0,6.0,'1111122,1111122,1111122' 
TCOON,ioos:station:TCOON:146:1,2014-12-05T22:30:00Z,28.1324,-97.0345,0.0,5.4,146.0,6.3,'1111122,1111122,1111122' 
TCOON,ioos:station:TCOON:146:1,2014-12-05T23:30:00Z,28.1324,-97.0345,0.0,4.1,141.0,4.6,'1111122,1111122,1111122' 
TCOON,ioos:station:TCOON:146:1,2014-12-06T00:30:00Z,28.1324,-97.0345,0.0,2.2,120.0,2.7,'1111122,1111122,1111122' 
TCOON,ioos:station:TCOON:146:1,2014-12-06T01:30:00Z,28.1324,-97.0345,0.0,2.8,137.0,3.4,'1111122,1111122,1111122' 
TCOON,ioos:station:TCOON:146:1,2014-12-06T02:30:00Z,28.1324,-97.0345,0.0,1.9,141.0,2.5,'1111122,1111122,1111122' 
TCOON,ioos:station:TCOON:146:1,2014-12-06T03:30:00Z,28.1324,-97.0345,0.0,2.7,136.0,3.1,'1111122,1111122,1111122' 
TCOON,ioos:station:TCOON:146:1,2014-12-06T04:30:00Z,28.1324,-97.0345,0.0,4.5,155.0,5.4,'1111122,1111122,1111122' 
TCOON,ioos:station:TCOON:146:1,2014-12-06T05:30:00Z,28.1324,-97.0345,0.0,4.2,164.0,5.1,'1111122,1111122,1111122' 
TCOON,ioos:station:TCOON:146:1,2014-12-06T08:30:00Z,28.1324,-97.0345,0.0,0.9,171.0,1.4,'1111122,1111122,1111122' 
TCOON,ioos:station:TCOON:146:1,2014-12-06T09:30:00Z,28.1324,-97.0345,0.0,1.2,21.0,1.9,'1111122,1111122,1111122' 
TCOON,ioos:station:TCOON:146:1,2014-12-06T10:30:00Z,28.1324,-97.0345,0.0,1.5,242.0,2.4,'1111122,1111122,1111122' 
TCOON,ioos:station:TCOON:146:1,2014-12-06T11:30:00Z,28.1324,-97.0345,0.0,2.2,232.0,2.8,'1111122,1111122,1111122' 
TCOON,ioos:station:TCOON:146:1,2014-12-06T12:30:00Z,28.1324,-97.0345,0.0,1.3,344.0,1.9,'1111122,1111122,1111122' 
TCOON,ioos:station:TCOON:146:1,2014-12-06T13:30:00Z,28.1324,-97.0345,0.0,2.3,28.0,2.5,'1111122,1111122,1111122' 
TCOON,ioos:station:TCOON:146:1,2014-12-06T15:30:00Z,28.1324,-97.0345,0.0,1.1,355.0,1.6,'1111122,1111122,1111122' 
TCOON,ioos:station:TCOON:146:1,2014-12-06T16:30:00Z,28.1324,-97.0345,0.0,6.1,17.0,6.9,'1111122,1111122,1111122' 
TCOON,ioos:station:TCOON:146:1,2014-12-06T17:30:00Z,28.1324,-97.0345,0.0,3.7,13.0,5.1,'1111122,1111122,1111122' 
TCOON,ioos:station:TCOON:146:1,2014-12-06T18:30:00Z,28.1324,-97.0345,0.0,4.7,40.0,5.8,'1111122,1111122,1111122' 
TCOON,ioos:station:TCOON:146:1,2014-12-06T19:30:00Z,28.1324,-97.0345,0.0,5.3,3.0,6.2,'1111122,1111122,1111122' 
TCOON,ioos:station:TCOON:146:1,2014-12-06T20:30:00Z,28.1324,-97.0345,0.0,5.3,8.0,6.6,'1111122,1111122,1111122' 
TCOON,ioos:station:TCOON:146:1,2014-12-06T21:30:00Z,28.1324,-97.0345,0.0,6.8,20.0,8.1,'1111122,1111122,1111122' 
TCOON,ioos:station:TCOON:146:1,2014-12-06T22:30:00Z,28.1324,-97.0345,0.0,6.5,19.0,7.6,'1111122,1111122,1111122' 
TCOON,ioos:station:TCOON:146:1,2014-12-06T23:30:00Z,28.1324,-97.0345,0.0,6.8,25.0,7.9,'1111122,1111122,1111122' 
TCOON,ioos:station:TCOON:146:1,2014-12-07T00:30:00Z,28.1324,-97.0345,0.0,7.0,12.0,8.6,'1111122,1111122,1111122' 
TCOON,ioos:station:TCOON:146:1,2014-12-07T01:30:00Z,28.1324,-97.0345,0.0,6.8,27.0,8.7,'1111122,1111122,1111122' 
TCOON,ioos:station:TCOON:146:1,2014-12-07T02:30:00Z,28.1324,-97.0345,0.0,7.3,26.0,9.0,'1111122,1111122,1111122' 
TCOON,ioos:station:TCOON:146:1,2014-12-07T03:30:00Z,28.1324,-97.0345,0.0,5.6,30.0,7.1,'1111122,1111122,1111122' 
TCOON,ioos:station:TCOON:146:1,2014-12-07T04:30:00Z,28.1324,-97.0345,0.0,4.8,43.0,5.8,'1111122,1111122,1111122' 
TCOON,ioos:station:TCOON:146:1,2014-12-07T05:30:00Z,28.1324,-97.0345,0.0,6.3,38.0,7.8,'1111122,1111122,1111122' 
TCOON,ioos:station:TCOON:146:1,2014-12-07T06:30:00Z,28.1324,-97.0345,0.0,6.7,33.0,8.0,'1111122,1111122,1111122' 
TCOON,ioos:station:TCOON:146:1,2014-12-07T07:30:00Z,28.1324,-97.0345,0.0,6.0,35.0,7.3,'1111122,1111122,1111122' 
TCOON,ioos:station:TCOON:146:1,2014-12-07T08:30:00Z,28.1324,-97.0345,0.0,5.1,18.0,6.2,'1111122,1111122,1111122' 
TCOON,ioos:station:TCOON:146:1,2014-12-07T09:30:00Z,28.1324,-97.0345,0.0,5.0,31.0,6.2,'1111122,1111122,1111122' 
TCOON,ioos:station:TCOON:146:1,2014-12-07T10:30:00Z,28.1324,-97.0345,0.0,5.2,29.0,6.2,'1111122,1111122,1111122' 
TCOON,ioos:station:TCOON:146:1,2014-12-07T11:30:00Z,28.1324,-97.0345,0.0,3.7,9.0,4.6,'1111122,1111122,1111122' 
TCOON,ioos:station:TCOON:146:1,2014-12-07T12:30:00Z,28.1324,-97.0345,0.0,3.8,11.0,5.0,'1111122,1111122,1111122' 
TCOON,ioos:station:TCOON:146:1,2014-12-07T13:30:00Z,28.1324,-97.0345,0.0,3.8,5.0,5.2,'1111122,1111122,1111122' 
TCOON,ioos:station:TCOON:146:1,2014-12-07T14:30:00Z,28.1324,-97.0345,0.0,5.5,13.0,6.6,'1111122,1111122,1111122' 
TCOON,ioos:station:TCOON:146:1,2014-12-07T15:30:00Z,28.1324,-97.0345,0.0,5.8,19.0,6.8,'1111122,1111122,1111122' 
TCOON,ioos:station:TCOON:146:1,2014-12-07T16:30:00Z,28.1324,-97.0345,0.0,6.4,19.0,7.6,'1111122,1111122,1111122' 
TCOON,ioos:station:TCOON:146:1,2014-12-07T17:30:00Z,28.1324,-97.0345,0.0,6.6,18.0,7.6,'1111122,1111122,1111122' 
TCOON,ioos:station:TCOON:146:1,2014-12-07T18:30:00Z,28.1324,-97.0345,0.0,6.4,27.0,7.8,'1111122,1111122,1111122' 
TCOON,ioos:station:TCOON:146:1,2014-12-07T20:30:00Z,28.1324,-97.0345,0.0,6.0,36.0,7.6,'1111122,1111122,1111122' 
TCOON,ioos:station:TCOON:146:1,2014-12-07T21:30:00Z,28.1324,-97.0345,0.0,5.5,34.0,7.7,'1111122,1111122,1111122' 
TCOON,ioos:station:TCOON:146:1,2014-12-07T23:30:00Z,28.1324,-97.0345,0.0,4.4,36.0,5.5,'1111122,1111122,1111122' 
TCOON,ioos:station:TCOON:146:1,2014-12-08T00:30:00Z,28.1324,-97.0345,0.0,5.6,28.0,7.0,'1111122,1111122,1111122' 
TCOON,ioos:station:TCOON:146:1,2014-12-08T01:30:00Z,28.1324,-97.0345,0.0,5.2,23.0,6.4,'1111122,1111122,1111122' 
TCOON,ioos:station:TCOON:146:1,2014-12-08T02:30:00Z,28.1324,-97.0345,0.0,6.6,21.0,7.7,'1111122,1111122,1111122' 
TCOON,ioos:station:TCOON:146:1,2014-12-08T03:30:00Z,28.1324,-97.0345,0.0,6.2,24.0,7.6,'1111122,1111122,1111122' 
TCOON,ioos:station:TCOON:146:1,2014-12-08T04:30:00Z,28.1324,-97.0345,0.0,4.7,49.0,5.8,'1111122,1111122,1111122' 
TCOON,ioos:station:TCOON:146:1,2014-12-08T05:30:00Z,28.1324,-97.0345,0.0,3.5,45.0,4.3,'1111122,1111122,1111122' 
TCOON,ioos:station:TCOON:146:1,2014-12-08T06:30:00Z,28.1324,-97.0345,0.0,4.1,19.0,5.2,'1111122,1111122,1111122' 
TCOON,ioos:station:TCOON:146:1,2014-12-08T07:30:00Z,28.1324,-97.0345,0.0,4.9,26.0,6.0,'1111122,1111122,1111122' 
TCOON,ioos:station:TCOON:146:1,2014-12-08T08:30:00Z,28.1324,-97.0345,0.0,5.3,18.0,6.3,'1111122,1111122,1111122' 
TCOON,ioos:station:TCOON:146:1,2014-12-08T09:30:00Z,28.1324,-97.0345,0.0,6.4,16.0,7.9,'1111122,1111122,1111122' 
TCOON,ioos:station:TCOON:146:1,2014-12-08T10:30:00Z,28.1324,-97.0345,0.0,8.1,17.0,10.1,'1111122,1111122,1111122' 
TCOON,ioos:station:TCOON:146:1,2014-12-08T11:30:00Z,28.1324,-97.0345,0.0,6.3,20.0,7.6,'1111122,1111122,1111122' 
TCOON,ioos:station:TCOON:146:1,2014-12-08T12:30:00Z,28.1324,-97.0345,0.0,5.8,19.0,7.0,'1111122,1111122,1111122' 
TCOON,ioos:station:TCOON:146:1,2014-12-08T13:30:00Z,28.1324,-97.0345,0.0,6.0,14.0,7.4,'1111122,1111122,1111122' 
TCOON,ioos:station:TCOON:146:1,2014-12-08T14:30:00Z,28.1324,-97.0345,0.0,5.4,12.0,6.5,'1111122,1111122,1111122' 
TCOON,ioos:station:TCOON:146:1,2014-12-08T15:30:00Z,28.1324,-97.0345,0.0,5.5,359.0,6.6,'1111122,1111122,1111122' 
TCOON,ioos:station:TCOON:146:1,2014-12-08T16:30:00Z,28.1324,-97.0345,0.0,4.6,3.0,5.5,'1111122,1111122,1111122' 
TCOON,ioos:station:TCOON:146:1,2014-12-08T17:30:00Z,28.1324,-97.0345,0.0,3.9,343.0,5.2,'1111122,1111122,1111122' 
TCOON,ioos:station:TCOON:146:1,2014-12-08T18:30:00Z,28.1324,-97.0345,0.0,3.5,4.0,4.6,'1111122,1111122,1111122' 
TCOON,ioos:station:TCOON:146:1,2014-12-08T19:30:00Z,28.1324,-97.0345,0.0,3.9,6.0,5.1,'1111122,1111122,1111122' 
TCOON,ioos:station:TCOON:146:1,2014-12-08T21:30:00Z,28.1324,-97.0345,0.0,1.8,4.0,2.6,'1111122,1111122,1111122' 
TCOON,ioos:station:TCOON:146:1,2014-12-08T22:30:00Z,28.1324,-97.0345,0.0,1.7,140.0,2.3,'1111122,1111122,1111122' 
TCOON,ioos:station:TCOON:146:1,2014-12-08T23:30:00Z,28.1324,-97.0345,0.0,4.0,90.0,4.6,'1111122,1111122,1111122' 
TCOON,ioos:station:TCOON:146:1,2014-12-09T00:30:00Z,28.1324,-97.0345,0.0,1.9,91.0,2.4,'1111122,1111122,1111122' 
TCOON,ioos:station:TCOON:146:1,2014-12-09T01:30:00Z,28.1324,-97.0345,0.0,2.0,125.0,2.7,'1111122,1111122,1111122' 
TCOON,ioos:station:TCOON:146:1,2014-12-09T02:30:00Z,28.1324,-97.0345,0.0,1.4,195.0,1.8,'1111122,1111122,1111122' 
TCOON,ioos:station:TCOON:146:1,2014-12-09T03:30:00Z,28.1324,-97.0345,0.0,1.3,240.0,1.6,'1111122,1111122,1111122' 
TCOON,ioos:station:TCOON:146:1,2014-12-09T04:30:00Z,28.1324,-97.0345,0.0,1.8,313.0,2.2,'1111122,1111122,1111122' 
TCOON,ioos:station:TCOON:146:1,2014-12-09T05:30:00Z,28.1324,-97.0345,0.0,2.6,319.0,3.0,'1111122,1111122,1111122' 
TCOON,ioos:station:TCOON:146:1,2014-12-09T06:30:00Z,28.1324,-97.0345,0.0,3.3,336.0,3.8,'1111122,1111122,1111122' 
TCOON,ioos:station:TCOON:146:1,2014-12-09T07:30:00Z,28.1324,-97.0345,0.0,3.8,1.0,4.6,'1111122,1111122,1111122' 
TCOON,ioos:station:TCOON:146:1,2014-12-09T08:30:00Z,28.1324,-97.0345,0.0,4.5,13.0,5.6,'1111122,1111122,1111122' 
TCOON,ioos:station:TCOON:146:1,2014-12-09T09:30:00Z,28.1324,-97.0345,0.0,4.4,11.0,5.4,'1111122,1111122,1111122' 
TCOON,ioos:station:TCOON:146:1,2014-12-09T10:30:00Z,28.1324,-97.0345,0.0,4.3,10.0,4.8,'1111122,1111122,1111122' 
TCOON,ioos:station:TCOON:146:1,2014-12-09T11:30:00Z,28.1324,-97.0345,0.0,4.3,16.0,4.9,'1111122,1111122,1111122' 
TCOON,ioos:station:TCOON:146:1,2014-12-09T12:30:00Z,28.1324,-97.0345,0.0,5.0,21.0,5.6,'1111122,1111122,1111122' 
TCOON,ioos:station:TCOON:146:1,2014-12-09T13:30:00Z,28.1324,-97.0345,0.0,4.3,20.0,5.1,'1111122,1111122,1111122' 
TCOON,ioos:station:TCOON:146:1,2014-12-09T14:30:00Z,28.1324,-97.0345,0.0,3.6,16.0,4.2,'1111122,1111122,1111122' 
TCOON,ioos:station:TCOON:146:1,2014-12-09T15:30:00Z,28.1324,-97.0345,0.0,3.7,2.0,4.3,'1111122,1111122,1111122' 
TCOON,ioos:station:TCOON:146:1,2014-12-09T16:30:00Z,28.1324,-97.0345,0.0,3.3,21.0,4.0,'1111122,1111122,1111122' 
TCOON,ioos:station:TCOON:146:1,2014-12-09T17:30:00Z,28.1324,-97.0345,0.0,2.0,51.0,2.5,'1111122,1111122,1111122' 
TCOON,ioos:station:TCOON:146:1,2014-12-09T18:30:00Z,28.1324,-97.0345,0.0,2.9,119.0,3.5,'1111122,1111122,1111122' 
TCOON,ioos:station:TCOON:146:1,2014-12-09T19:30:00Z,28.1324,-97.0345,0.0,3.4,117.0,3.9,'1111122,1111122,1111122' 
TCOON,ioos:station:TCOON:146:1,2014-12-09T20:30:00Z,28.1324,-97.0345,0.0,3.5,123.0,4.0,'1111122,1111122,1111122' 
TCOON,ioos:station:TCOON:146:1,2014-12-09T21:30:00Z,28.1324,-97.0345,0.0,2.8,116.0,3.3,'1111122,1111122,1111122' 
TCOON,ioos:station:TCOON:146:1,2014-12-09T23:00:00Z,28.1324,-97.0345,0.0,4.8,103.0,5.6,'1111122,1111122,1111122' 
TCOON,ioos:station:TCOON:146:1,2014-12-10T00:00:00Z,28.1324,-97.0345,0.0,5.2,99.0,6.0,'1111122,1111122,1111122' 
TCOON,ioos:station:TCOON:146:1,2014-12-10T00:30:00Z,28.1324,-97.0345,0.0,5.4,97.0,6.1,'1111122,1111122,1111122' 
TCOON,ioos:station:TCOON:146:1,2014-12-10T01:30:00Z,28.1324,-97.0345,0.0,5.0,107.0,5.9,'1111122,1111122,1111122' 
TCOON,ioos:station:TCOON:146:1,2014-12-10T02:30:00Z,28.1324,-97.0345,0.0,2.8,120.0,3.4,'1111122,1111122,1111122' 
TCOON,ioos:station:TCOON:146:1,2014-12-10T03:30:00Z,28.1324,-97.0345,0.0,1.9,100.0,2.4,'1111122,1111122,1111122' 
TCOON,ioos:station:TCOON:146:1,2014-12-10T04:30:00Z,28.1324,-97.0345,0.0,1.8,37.0,2.2,'1111122,1111122,1111122' 
TCOON,ioos:station:TCOON:146:1,2014-12-10T05:30:00Z,28.1324,-97.0345,0.0,2.0,18.0,2.2,'1111122,1111122,1111122' 
TCOON,ioos:station:TCOON:146:1,2014-12-10T07:00:00Z,28.1324,-97.0345,0.0,2.8,35.0,3.3,'1111122,1111122,1111122' 
TCOON,ioos:station:TCOON:146:1,2014-12-10T07:30:00Z,28.1324,-97.0345,0.0,1.9,37.0,2.3,'1111122,1111122,1111122' 
TCOON,ioos:station:TCOON:146:1,2014-12-10T08:30:00Z,28.1324,-97.0345,0.0,3.5,27.0,4.2,'1111122,1111122,1111122' 